| time (UTC) | temp C | wind direction | speed KPH | gust KPH | rain 1hr cm | rain 24hr cm | rain mn cm | humidity % | barometer mb |
| 20260902070007 | 16 | 205 | 3.2 | 4.8 | 0.00 | 0.00 | 0.00 | 58 | 1003.8 |
| 20260902065505 | 16 | 204 | 0.0 | 4.8 | 0.00 | 0.00 | 0.00 | 58 | 1003.9 |
| 20260902065005 | 16 | 204 | 3.2 | 4.8 | 0.00 | 0.00 | 0.00 | 58 | 1004.0 |
| 20260902064505 | 16 | 204 | 3.2 | 8.0 | 0.00 | 0.00 | 0.00 | 58 | 1003.9 |
| 20260902064005 | 16 | 204 | 4.8 | 9.7 | 0.00 | 0.00 | 0.00 | 58 | 1003.9 |
| 20260902063005 | 16 | 185 | 4.8 | 16.1 | 0.00 | 0.00 | 0.00 | 60 | 1004.0 |
| 20260902062505 | 15 | 175 | 11.3 | 16.1 | 0.00 | 0.00 | 0.00 | 60 | 1004.0 |
| 20260902062005 | 16 | 164 | 11.3 | 16.1 | 0.00 | 0.00 | 0.00 | 58 | 1004.0 |
| 20260902061505 | 16 | 166 | 12.9 | 16.1 | 0.00 | 0.00 | 0.00 | 57 | 1003.9 |
| 20260902061005 | 16 | 230 | 8.0 | 8.0 | 0.00 | 0.00 | 0.00 | 57 | 1003.8 |
| 20260902060005 | 16 | 234 | 6.4 | 9.7 | 0.00 | 0.00 | 0.00 | 56 | 1003.8 |
| 20260902055505 | 16 | 237 | 4.8 | 9.7 | 0.00 | 0.00 | 0.00 | 55 | 1003.8 |
| 20260902055005 | 16 | 223 | 9.7 | 9.7 | 0.00 | 0.00 | 0.00 | 56 | 1003.9 |
| 20260902054506 | 16 | 180 | 4.8 | 4.8 | 0.00 | 0.00 | 0.00 | 55 | 1004.0 |
| 20260902054005 | 16 | 179 | 3.2 | 9.7 | 0.00 | 0.00 | 0.00 | 55 | 1004.0 |
| 20260902053005 | 17 | 179 | 6.4 | 8.0 | 0.00 | 0.00 | 0.00 | 52 | 1004.2 |
| 20260902052505 | 17 | 178 | 3.2 | 8.0 | 0.00 | 0.00 | 0.00 | 52 | 1004.2 |
| 20260902052006 | 17 | 177 | 4.8 | 8.0 | 0.00 | 0.00 | 0.00 | 52 | 1004.3 |
| 20260902051505 | 17 | 177 | 4.8 | 9.7 | 0.00 | 0.00 | 0.00 | 52 | 1004.2 |
| 20260902051006 | 17 | 176 | 4.8 | 12.9 | 0.00 | 0.00 | 0.00 | 52 | 1004.3 |
| 20260902050007 | 17 | 146 | 4.8 | 8.0 | 0.00 | 0.00 | 0.00 | 52 | 1004.1 |
| 20260902045005 | 18 | 234 | 4.8 | 8.0 | 0.00 | 0.00 | 0.00 | 51 | 1004.0 |
| 20260902044505 | 18 | 234 | 6.4 | 9.7 | 0.00 | 0.00 | 0.00 | 50 | 1004.1 |
| 20260902044005 | 18 | 229 | 8.0 | 9.7 | 0.00 | 0.00 | 0.00 | 50 | 1004.1 |
| 20260902043505 | 18 | 230 | 8.0 | 9.7 | 0.00 | 0.00 | 0.00 | 50 | 1004.1 |
| 20260902043006 | 18 | 226 | 8.0 | 9.7 | 0.00 | 0.00 | 0.00 | 51 | 1004.1 |
| 20260902042505 | 18 | 227 | 6.4 | 12.9 | 0.00 | 0.00 | 0.00 | 51 | 1004.1 |
| 20260902042005 | 18 | 202 | 8.0 | 12.9 | 0.00 | 0.00 | 0.00 | 51 | 1004.0 |
| 20260902041505 | 18 | 200 | 9.7 | 12.9 | 0.00 | 0.00 | 0.00 | 51 | 1004.1 |
| 20260902041005 | 18 | 199 | 9.7 | 14.5 | 0.00 | 0.00 | 0.00 | 51 | 1004.0 |
| 20260902040005 | 18 | 198 | 11.3 | 14.5 | 0.00 | 0.00 | 0.00 | 51 | 1004.1 |
| 20260902035505 | 18 | 200 | 9.7 | 14.5 | 0.00 | 0.00 | 0.00 | 51 | 1004.2 |
| 20260902035005 | 18 | 200 | 8.0 | 12.9 | 0.00 | 0.00 | 0.00 | 52 | 1004.3 |
| 20260902034506 | 18 | 203 | 8.0 | 12.9 | 0.00 | 0.00 | 0.00 | 52 | 1004.3 |
| 20260902034005 | 18 | 204 | 6.4 | 9.7 | 0.00 | 0.00 | 0.00 | 52 | 1004.4 |
| 20260902033505 | 18 | 216 | 4.8 | 11.3 | 0.00 | 0.00 | 0.00 | 51 | 1004.4 |
| 20260902033005 | 18 | 211 | 8.0 | 11.3 | 0.00 | 0.00 | 0.00 | 51 | 1004.4 |
| 20260902032005 | 18 | 206 | 4.8 | 11.3 | 0.00 | 0.00 | 0.00 | 50 | 1004.3 |
| 20260902031505 | 18 | 199 | 8.0 | 11.3 | 0.00 | 0.00 | 0.00 | 50 | 1004.3 |
| 20260902031005 | 19 | 223 | 4.8 | 11.3 | 0.00 | 0.00 | 0.00 | 49 | 1004.3 |
| 20260902030005 | 19 | 212 | 8.0 | 14.5 | 0.00 | 0.00 | 0.00 | 48 | 1004.2 |
| 20260902025505 | 20 | 196 | 11.3 | 14.5 | 0.00 | 0.00 | 0.00 | 48 | 1004.2 |
| 20260902025005 | 20 | 203 | 6.4 | 11.3 | 0.00 | 0.00 | 0.00 | 47 | 1004.2 |
| 20260902024505 | 20 | 213 | 9.7 | 11.3 | 0.00 | 0.00 | 0.00 | 47 | 1004.2 |
| 20260902024005 | 20 | 235 | 8.0 | 14.5 | 0.00 | 0.00 | 0.00 | 47 | 1004.2 |
| 20260902023505 | 20 | 231 | 9.7 | 14.5 | 0.00 | 0.00 | 0.00 | 46 | 1004.1 |
| 20260902023005 | 20 | 231 | 8.0 | 12.9 | 0.00 | 0.00 | 0.00 | 46 | 1004.1 |
| 20260902022005 | 20 | 232 | 6.4 | 11.3 | 0.00 | 0.00 | 0.00 | 45 | 1003.8 |
| 20260902021505 | 20 | 223 | 6.4 | 11.3 | 0.00 | 0.00 | 0.00 | 45 | 1003.7 |
| 20260902021005 | 21 | 196 | 6.4 | 11.3 | 0.00 | 0.00 | 0.00 | 44 | 1003.5 |
| 20260902020005 | 21 | 228 | 3.2 | 8.0 | 0.00 | 0.00 | 0.00 | 44 | 1003.4 |
| 20260902015504 | 22 | 240 | 1.6 | 8.0 | 0.00 | 0.00 | 0.00 | 44 | 1003.4 |
| 20260902015005 | 22 | 314 | 0.0 | 4.8 | 0.00 | 0.00 | 0.00 | 44 | 1003.3 |
| 20260902014505 | 22 | 314 | 1.6 | 4.8 | 0.00 | 0.00 | 0.00 | 43 | 1003.4 |
| 20260902014005 | 22 | 314 | 3.2 | 4.8 | 0.00 | 0.00 | 0.00 | 43 | 1003.4 |
| 20260902013505 | 22 | 314 | 3.2 | 8.0 | 0.00 | 0.00 | 0.00 | 42 | 1003.4 |
| 20260902013005 | 23 | 314 | 4.8 | 8.0 | 0.00 | 0.00 | 0.00 | 41 | 1003.4 |
| 20260902012505 | 23 | 314 | 4.8 | 8.0 | 0.00 | 0.00 | 0.00 | 39 | 1003.4 |
| 20260902012005 | 24 | 314 | 4.8 | 4.8 | 0.00 | 0.00 | 0.00 | 37 | 1003.4 |
| 20260902011505 | 25 | 315 | 0.0 | 4.8 | 0.00 | 0.00 | 0.00 | 35 | 1003.5 |
| 20260902011005 | 25 | 315 | 1.6 | 9.7 | 0.00 | 0.00 | 0.00 | 34 | 1003.5 |
| 20260902010005 | 26 | 315 | 6.4 | 9.7 | 0.00 | 0.00 | 0.00 | 33 | 1003.6 |
| 20260902005505 | 27 | 183 | 3.2 | 8.0 | 0.00 | 0.00 | 0.00 | 31 | 1003.6 |
| 20260902004505 | 26 | 181 | 4.8 | 9.7 | 0.00 | 0.00 | 0.00 | 30 | 1003.6 |
| 20260902004005 | 26 | 163 | 1.6 | 11.3 | 0.00 | 0.00 | 0.00 | 31 | 1003.6 |
| 20260902002505 | 26 | 193 | 4.8 | 11.3 | 0.00 | 0.00 | 0.00 | 30 | 1003.6 |
| 20260902002005 | 26 | 195 | 8.0 | 14.5 | 0.00 | 0.00 | 0.00 | 31 | 1003.5 |
| 20260902001505 | 26 | 190 | 9.7 | 14.5 | 0.00 | 0.00 | 0.00 | 31 | 1003.7 |
| 20260902001005 | 26 | 202 | 8.0 | 12.9 | 0.00 | 0.00 | 0.00 | 30 | 1003.7 |
| 20260902000005 | 26 | 172 | 4.8 | 19.3 | 0.00 | 0.00 | 0.00 | 31 | 1003.8 |
| 20260901235504 | 26 | 141 | 11.3 | 20.9 | 0.00 | 0.00 | 0.00 | 32 | 1003.8 |
| 20260901234505 | 26 | 131 | 4.8 | 19.3 | 0.00 | 0.00 | 0.00 | 31 | 1003.9 |
| 20260901234005 | 26 | 121 | 11.3 | 20.9 | 0.00 | 0.00 | 0.00 | 32 | 1003.9 |
| 20260901233505 | 26 | 139 | 6.4 | 20.9 | 0.00 | 0.00 | 0.00 | 32 | 1003.9 |
| 20260901233005 | 26 | 144 | 11.3 | 19.3 | 0.00 | 0.00 | 0.00 | 32 | 1003.9 |
| 20260901232505 | 26 | 145 | 9.7 | 19.3 | 0.00 | 0.00 | 0.00 | 32 | 1004.0 |
| 20260901232005 | 26 | 150 | 3.2 | 20.9 | 0.00 | 0.00 | 0.00 | 33 | 1004.0 |
| 20260901231505 | 26 | 160 | 6.4 | 20.9 | 0.00 | 0.00 | 0.00 | 32 | 1004.1 |
| 20260901231005 | 26 | 130 | 11.3 | 16.1 | 0.00 | 0.00 | 0.00 | 33 | 1004.1 |
| 20260901230005 | 26 | 152 | 0.0 | 9.7 | 0.00 | 0.00 | 0.00 | 33 | 1004.4 |
| 20260901225504 | 26 | 141 | 1.6 | 19.3 | 0.00 | 0.00 | 0.00 | 33 | 1004.4 |
| 20260901225005 | 26 | 144 | 8.0 | 25.7 | 0.00 | 0.00 | 0.00 | 32 | 1004.5 |
| 20260901224005 | 26 | 158 | 12.9 | 19.3 | 0.00 | 0.00 | 0.00 | 33 | 1004.5 |
| 20260901223504 | 26 | 195 | 9.7 | 22.5 | 0.00 | 0.00 | 0.00 | 33 | 1004.7 |
| 20260901223006 | 25 | 171 | 9.7 | 22.5 | 0.00 | 0.00 | 0.00 | 34 | 1004.7 |
| 20260901222505 | 25 | 172 | 8.0 | 14.5 | 0.00 | 0.00 | 0.00 | 35 | 1004.7 |
| 20260901222005 | 24 | 158 | 3.2 | 12.9 | 0.00 | 0.00 | 0.00 | 37 | 1004.7 |
| 20260901221005 | 23 | 222 | 3.2 | 16.1 | 0.00 | 0.00 | 0.00 | 42 | 1004.8 |
| 20260901220005 | 23 | 247 | 11.3 | 16.1 | 0.00 | 0.00 | 0.00 | 40 | 1005.0 |
| 20260901215504 | 23 | 271 | 9.7 | 19.3 | 0.00 | 0.00 | 0.00 | 40 | 1005.0 |
| 20260901215004 | 23 | 266 | 11.3 | 20.9 | 0.00 | 0.00 | 0.00 | 40 | 1005.0 |
| 20260901214505 | 23 | 273 | 14.5 | 20.9 | 0.00 | 0.00 | 0.00 | 40 | 1005.0 |
| 20260901213505 | 23 | 271 | 14.5 | 22.5 | 0.00 | 0.00 | 0.00 | 38 | 1005.2 |
| 20260901213005 | 24 | 273 | 16.1 | 22.5 | 0.00 | 0.00 | 0.00 | 36 | 1005.2 |
| 20260901212505 | 24 | 257 | 12.9 | 20.9 | 0.00 | 0.00 | 0.00 | 36 | 1005.3 |
| 20260901211505 | 24 | 281 | 9.7 | 20.9 | 0.00 | 0.00 | 0.00 | 37 | 1005.3 |
| 20260901211005 | 24 | 266 | 14.5 | 20.9 | 0.00 | 0.00 | 0.00 | 37 | 1005.4 |
| 20260901210005 | 24 | 273 | 11.3 | 19.3 | 0.00 | 0.00 | 0.00 | 36 | 1005.5 |
| 20260901205504 | 24 | 275 | 11.3 | 19.3 | 0.00 | 0.00 | 0.00 | 37 | 1005.5 |
| 20260901205005 | 23 | 252 | 12.9 | 19.3 | 0.00 | 0.00 | 0.00 | 36 | 1005.5 |
| 20260901204505 | 23 | 287 | 12.9 | 20.9 | 0.00 | 0.00 | 0.00 | 37 | 1005.5 |
| 20260901204005 | 24 | 292 | 14.5 | 20.9 | 0.00 | 0.00 | 0.00 | 37 | 1005.4 |
| 20260901203505 | 23 | 261 | 11.3 | 19.3 | 0.00 | 0.00 | 0.00 | 38 | 1005.5 |
| 20260901203005 | 23 | 272 | 11.3 | 20.9 | 0.00 | 0.00 | 0.00 | 39 | 1005.5 |
| 20260901202505 | 23 | 270 | 14.5 | 22.5 | 0.00 | 0.00 | 0.00 | 39 | 1005.6 |
| 20260901201505 | 23 | 272 | 19.3 | 24.1 | 0.00 | 0.00 | 0.00 | 40 | 1005.7 |
| 20260901201004 | 23 | 273 | 17.7 | 24.1 | 0.00 | 0.00 | 0.00 | 40 | 1005.8 |
| 20260901200005 | 23 | 283 | 17.7 | 24.1 | 0.00 | 0.00 | 0.00 | 42 | 1005.9 |
| 20260901195005 | 22 | 273 | 16.1 | 24.1 | 0.00 | 0.00 | 0.00 | 42 | 1006.1 |
| 20260901194504 | 22 | 269 | 19.3 | 25.7 | 0.00 | 0.00 | 0.00 | 44 | 1006.2 |
| 20260901194005 | 22 | 277 | 19.3 | 25.7 | 0.00 | 0.00 | 0.00 | 43 | 1006.2 |
| 20260901193505 | 22 | 270 | 19.3 | 25.7 | 0.00 | 0.00 | 0.00 | 44 | 1006.3 |
| 20260901193004 | 22 | 263 | 16.1 | 22.5 | 0.00 | 0.00 | 0.00 | 44 | 1006.4 |
| 20260901192505 | 22 | 273 | 12.9 | 24.1 | 0.00 | 0.00 | 0.00 | 45 | 1006.5 |
| 20260901192005 | 21 | 279 | 16.1 | 24.1 | 0.00 | 0.00 | 0.00 | 45 | 1006.6 |
| 20260901191505 | 21 | 273 | 16.1 | 24.1 | 0.00 | 0.00 | 0.00 | 46 | 1006.6 |
| 20260901191005 | 21 | 281 | 16.1 | 22.5 | 0.00 | 0.00 | 0.00 | 45 | 1006.8 |
| 20260901185505 | 21 | 271 | 17.7 | 24.1 | 0.00 | 0.00 | 0.00 | 46 | 1007.1 |
| 20260901184505 | 21 | 271 | 19.3 | 25.7 | 0.00 | 0.00 | 0.00 | 46 | 1007.1 |
| 20260901184005 | 21 | 283 | 16.1 | 25.7 | 0.00 | 0.00 | 0.00 | 45 | 1007.2 |
| 20260901183504 | 21 | 281 | 19.3 | 27.4 | 0.00 | 0.00 | 0.00 | 44 | 1007.3 |
| 20260901183005 | 21 | 272 | 14.5 | 32.2 | 0.00 | 0.00 | 0.00 | 43 | 1007.2 |
| 20260901182504 | 21 | 276 | 20.9 | 32.2 | 0.00 | 0.00 | 0.00 | 42 | 1007.2 |
| 20260901182004 | 21 | 282 | 19.3 | 32.2 | 0.00 | 0.00 | 0.00 | 43 | 1007.3 |
| 20260901181504 | 21 | 283 | 19.3 | 32.2 | 0.00 | 0.00 | 0.00 | 43 | 1007.3 |
| 20260901180005 | 21 | 285 | 20.9 | 32.2 | 0.00 | 0.00 | 0.00 | 44 | 1007.3 |
| 20260901175504 | 21 | 277 | 22.5 | 35.4 | 0.00 | 0.00 | 0.00 | 42 | 1007.4 |
| 20260901175004 | 21 | 277 | 25.7 | 35.4 | 0.00 | 0.00 | 0.00 | 42 | 1007.4 |
| 20260901174504 | 21 | 278 | 19.3 | 32.2 | 0.00 | 0.00 | 0.00 | 44 | 1007.5 |
| 20260901174007 | 21 | 272 | 20.9 | 32.2 | 0.00 | 0.00 | 0.00 | 44 | 1007.5 |
| 20260901173504 | 20 | 273 | 22.5 | 32.2 | 0.00 | 0.00 | 0.00 | 46 | 1007.5 |
| 20260901173005 | 20 | 270 | 22.5 | 29.0 | 0.00 | 0.00 | 0.00 | 48 | 1007.5 |
| 20260901172505 | 20 | 278 | 19.3 | 29.0 | 0.00 | 0.00 | 0.00 | 48 | 1007.6 |
| 20260901172005 | 20 | 268 | 19.3 | 32.2 | 0.00 | 0.00 | 0.00 | 49 | 1007.6 |
| 20260901171505 | 19 | 257 | 20.9 | 32.2 | 0.00 | 0.00 | 0.00 | 49 | 1007.6 |
| 20260901171004 | 19 | 255 | 20.9 | 32.2 | 0.00 | 0.00 | 0.00 | 50 | 1007.7 |
| 20260901170005 | 18 | 257 | 20.9 | 32.2 | 0.00 | 0.00 | 0.00 | 49 | 1007.7 |
| 20260901165504 | 18 | 255 | 19.3 | 24.1 | 0.00 | 0.00 | 0.00 | 47 | 1007.6 |
| 20260901165004 | 18 | 262 | 14.5 | 22.5 | 0.00 | 0.00 | 0.00 | 45 | 1007.7 |
| 20260901164504 | 18 | 243 | 11.3 | 19.3 | 0.00 | 0.00 | 0.00 | 46 | 1007.7 |
| 20260901164004 | 18 | 255 | 14.5 | 19.3 | 0.00 | 0.00 | 0.00 | 45 | 1007.6 |
| 20260901163504 | 18 | 273 | 11.3 | 19.3 | 0.00 | 0.00 | 0.00 | 44 | 1007.5 |
| 20260901162504 | 18 | 245 | 16.1 | 22.5 | 0.00 | 0.00 | 0.00 | 43 | 1007.4 |
| 20260901161505 | 17 | 242 | 16.1 | 22.5 | 0.00 | 0.00 | 0.00 | 45 | 1007.4 |
| 20260901161005 | 17 | 261 | 14.5 | 19.3 | 0.00 | 0.00 | 0.00 | 42 | 1007.4 |
| 20260901160004 | 16 | 253 | 14.5 | 24.1 | 0.00 | 0.00 | 0.00 | 43 | 1007.4 |
| 20260901155005 | 15 | 250 | 17.7 | 22.5 | 0.00 | 0.00 | 0.00 | 47 | 1007.4 |
| 20260901154505 | 14 | 264 | 16.1 | 19.3 | 0.00 | 0.00 | 0.00 | 50 | 1007.5 |
| 20260901154005 | 14 | 275 | 8.0 | 12.9 | 0.00 | 0.00 | 0.00 | 50 | 1007.6 |
| 20260901153004 | 16 | 240 | 4.8 | 20.9 | 0.00 | 0.00 | 0.00 | 53 | 1007.9 |
| 20260901151504 | 16 | 275 | 14.5 | 20.9 | 0.00 | 0.00 | 0.00 | 49 | 1007.3 |
| 20260901151004 | 16 | 274 | 9.7 | 14.5 | 0.00 | 0.00 | 0.00 | 44 | 1007.5 |
| 20260901150005 | 16 | 247 | 9.7 | 16.1 | 0.00 | 0.00 | 0.00 | 44 | 1007.8 |
| 20260901145505 | 15 | 248 | 11.3 | 16.1 | 0.00 | 0.00 | 0.00 | 44 | 1008.0 |
| 20260901145004 | 15 | 246 | 11.3 | 16.1 | 0.00 | 0.00 | 0.00 | 44 | 1007.9 |
| 20260901144505 | 15 | 259 | 11.3 | 14.5 | 0.00 | 0.00 | 0.00 | 45 | 1007.9 |
| 20260901143504 | 15 | 244 | 8.0 | 9.7 | 0.00 | 0.00 | 0.00 | 48 | 1008.1 |
| 20260901143004 | 14 | 237 | 8.0 | 9.7 | 0.00 | 0.00 | 0.00 | 49 | 1008.1 |
| 20260901142504 | 14 | 227 | 4.8 | 8.0 | 0.00 | 0.00 | 0.00 | 49 | 1008.1 |
| 20260901142005 | 13 | 226 | 4.8 | 9.7 | 0.00 | 0.00 | 0.00 | 50 | 1008.0 |
| 20260901141504 | 13 | 224 | 8.0 | 11.3 | 0.00 | 0.00 | 0.00 | 50 | 1008.1 |
| 20260901141004 | 13 | 206 | 4.8 | 11.3 | 0.00 | 0.00 | 0.00 | 51 | 1008.1 |
| 20260901140005 | 13 | 200 | 0.0 | 0.0 | 0.00 | 0.00 | 0.00 | 53 | 1008.1 |
| 20260901135511 | 13 | 200 | 0.0 | 0.0 | 0.00 | 0.00 | 0.00 | 52 | 1008.1 |
| 20260901134505 | 13 | 201 | 0.0 | 0.0 | 0.00 | 0.00 | 0.00 | 53 | 1008.0 |
| 20260901134004 | 12 | 200 | 0.0 | 0.0 | 0.00 | 0.00 | 0.00 | 55 | 1007.9 |
| 20260901133004 | 12 | 199 | 0.0 | 4.8 | 0.00 | 0.00 | 0.00 | 54 | 1007.9 |
| 20260901132504 | 12 | 199 | 3.2 | 4.8 | 0.00 | 0.00 | 0.00 | 55 | 1007.8 |
| 20260901132004 | 12 | 199 | 0.0 | 1.6 | 0.00 | 0.00 | 0.00 | 54 | 1007.8 |
| 20260901131504 | 11 | 199 | 0.0 | 1.6 | 0.00 | 0.00 | 0.00 | 56 | 1007.7 |
| 20260901131004 | 11 | 199 | 0.0 | 4.8 | 0.00 | 0.00 | 0.00 | 58 | 1007.5 |
| 20260901130004 | 11 | 199 | 3.2 | 11.3 | 0.00 | 0.00 | 0.00 | 56 | 1007.5 |
| 20260901125504 | 11 | 197 | 8.0 | 11.3 | 0.00 | 0.00 | 0.00 | 56 | 1007.5 |
| 20260901125004 | 12 | 194 | 8.0 | 9.7 | 0.00 | 0.00 | 0.00 | 54 | 1007.5 |
| 20260901124505 | 12 | 200 | 4.8 | 8.0 | 0.00 | 0.00 | 0.00 | 53 | 1007.5 |
| 20260901124005 | 12 | 201 | 0.0 | 1.6 | 0.00 | 0.00 | 0.00 | 51 | 1007.5 |
| 20260901123005 | 11 | 201 | 1.6 | 8.0 | 0.00 | 0.00 | 0.00 | 55 | 1007.4 |
| 20260901122505 | 11 | 201 | 4.8 | 8.0 | 0.00 | 0.00 | 0.00 | 57 | 1007.5 |
| 20260901121505 | 11 | 201 | 4.8 | 14.5 | 0.00 | 0.00 | 0.00 | 57 | 1007.6 |
| 20260901121005 | 11 | 198 | 11.3 | 14.5 | 0.00 | 0.00 | 0.00 | 57 | 1007.6 |
| 20260901120005 | 11 | 197 | 8.0 | 9.7 | 0.00 | 0.00 | 0.00 | 58 | 1007.5 |
| 20260901114504 | 11 | 199 | 3.2 | 4.8 | 0.00 | 0.00 | 0.00 | 56 | 1007.5 |
| 20260901114005 | 11 | 198 | 3.2 | 4.8 | 0.00 | 0.00 | 0.00 | 56 | 1007.4 |
| 20260901113505 | 11 | 198 | 3.2 | 4.8 | 0.00 | 0.00 | 0.00 | 58 | 1007.5 |
| 20260901113004 | 10 | 198 | 3.2 | 8.0 | 0.00 | 0.00 | 0.00 | 59 | 1007.5 |
| 20260901112504 | 10 | 198 | 3.2 | 9.7 | 0.00 | 0.00 | 0.00 | 59 | 1007.6 |
| 20260901112004 | 10 | 197 | 8.0 | 9.7 | 0.00 | 0.00 | 0.00 | 59 | 1007.7 |
| 20260901111504 | 10 | 199 | 8.0 | 9.7 | 0.00 | 0.00 | 0.00 | 59 | 1007.8 |
| 20260901111004 | 10 | 198 | 8.0 | 11.3 | 0.00 | 0.00 | 0.00 | 59 | 1007.8 |
| 20260901105504 | 10 | 198 | 6.4 | 9.7 | 0.00 | 0.00 | 0.00 | 59 | 1007.9 |
| 20260901105004 | 11 | 197 | 6.4 | 9.7 | 0.00 | 0.00 | 0.00 | 58 | 1007.9 |
| 20260901104504 | 11 | 211 | 4.8 | 4.8 | 0.00 | 0.00 | 0.00 | 57 | 1007.8 |
| 20260901104004 | 11 | 216 | 4.8 | 4.8 | 0.00 | 0.00 | 0.00 | 55 | 1007.9 |
| 20260901103504 | 11 | 270 | 3.2 | 4.8 | 0.00 | 0.00 | 0.00 | 54 | 1007.9 |
| 20260901103005 | 12 | 270 | 1.6 | 4.8 | 0.00 | 0.00 | 0.00 | 54 | 1008.0 |
| 20260901102505 | 12 | 270 | 1.6 | 4.8 | 0.00 | 0.00 | 0.00 | 54 | 1008.0 |
| 20260901102004 | 12 | 270 | 3.2 | 4.8 | 0.00 | 0.00 | 0.00 | 54 | 1008.1 |
| 20260901100004 | 11 | 270 | 1.6 | 4.8 | 0.00 | 0.00 | 0.00 | 56 | 1008.1 |
| 20260901095505 | 11 | 270 | 3.2 | 4.8 | 0.00 | 0.00 | 0.00 | 54 | 1008.1 |
| 20260901094504 | 11 | 273 | 4.8 | 9.7 | 0.00 | 0.00 | 0.00 | 55 | 1008.1 |
| 20260901094005 | 11 | 282 | 0.0 | 0.0 | 0.00 | 0.00 | 0.00 | 55 | 1008.2 |
| 20260901093504 | 11 | 297 | 0.0 | 0.0 | 0.00 | 0.00 | 0.00 | 54 | 1008.3 |
| 20260901093005 | 11 | 298 | 0.0 | 0.0 | 0.00 | 0.00 | 0.00 | 53 | 1008.1 |
| 20260901092504 | 12 | 354 | 0.0 | 0.0 | 0.00 | 0.00 | 0.00 | 52 | 1008.1 |
| 20260901092004 | 12 | 353 | 0.0 | 0.0 | 0.00 | 0.00 | 0.00 | 53 | 1008.1 |
| 20260901091504 | 12 | 359 | 0.0 | 0.0 | 0.00 | 0.00 | 0.00 | 53 | 1008.1 |
| 20260901091005 | 12 | 359 | 0.0 | 0.0 | 0.00 | 0.00 | 0.00 | 55 | 1008.1 |
| 20260901090004 | 11 | 359 | 0.0 | 0.0 | 0.00 | 0.00 | 0.00 | 55 | 1008.1 |
| 20260901085505 | 12 | 359 | 0.0 | 0.0 | 0.00 | 0.00 | 0.00 | 55 | 1008.1 |
| 20260901085004 | 12 | 359 | 0.0 | 0.0 | 0.00 | 0.00 | 0.00 | 55 | 1008.2 |
| 20260901084005 | 12 | 359 | 0.0 | 0.0 | 0.00 | 0.00 | 0.00 | 54 | 1008.1 |
| 20260901083505 | 12 | 359 | 0.0 | 1.6 | 0.00 | 0.00 | 0.00 | 53 | 1008.1 |
| 20260901082504 | 12 | 359 | 1.6 | 4.8 | 0.00 | 0.00 | 0.00 | 53 | 1008.1 |
| 20260901082004 | 12 | 359 | 3.2 | 9.7 | 0.00 | 0.00 | 0.00 | 53 | 1008.1 |
| 20260901081504 | 12 | 6 | 4.8 | 11.3 | 0.00 | 0.00 | 0.00 | 53 | 1008.1 |
| 20260901081004 | 13 | 0 | 8.0 | 16.1 | 0.00 | 0.00 | 0.00 | 52 | 1008.1 |
| 20260901080004 | 13 | 347 | 8.0 | 12.9 | 0.00 | 0.00 | 0.00 | 51 | 1008.1 |
| 20260901075504 | 13 | 14 | 4.8 | 12.9 | 0.00 | 0.00 | 0.00 | 51 | 1008.1 |
| 20260901075004 | 13 | 15 | 6.4 | 12.9 | 0.00 | 0.00 | 0.00 | 50 | 1008.2 |
| 20260901074504 | 13 | 25 | 4.8 | 11.3 | 0.00 | 0.00 | 0.00 | 50 | 1008.1 |
| 20260901074004 | 13 | 13 | 3.2 | 8.0 | 0.00 | 0.00 | 0.00 | 49 | 1008.1 |
| 20260901073505 | 13 | 10 | 3.2 | 4.8 | 0.00 | 0.00 | 0.00 | 48 | 1008.3 |
| 20260901073005 | 13 | 343 | 0.0 | 4.8 | 0.00 | 0.00 | 0.00 | 48 | 1008.3 |
| 20260901072504 | 14 | 343 | 0.0 | 4.8 | 0.00 | 0.00 | 0.00 | 48 | 1008.4 |
| 20260901072005 | 14 | 343 | 4.8 | 9.7 | 0.00 | 0.00 | 0.00 | 47 | 1008.3 |
| 20260901071504 | 14 | 308 | 4.8 | 9.7 | 0.00 | 0.00 | 0.00 | 46 | 1008.3 |